CW1707 Weather Reports


time (UTC)temp
C
wind
direction
speed
KPH
gust
KPH
rain 1hr
cm
rain 24hr
cm
rain mn
cm
humidity
%
barometer
mb
20260508021705 15 163 3.2 8.0 0.00 0.00 0.00 59 1007.7
20260508021204 15 163 3.2 8.0 0.00 0.00 0.00 59 1007.6
20260508020704 15 162 3.2 9.7 0.00 0.00 0.00 58 1007.6
20260508020205 15 172 3.2 11.3 0.00 0.00 0.00 58 1007.5
20260508014204 16 177 3.2 8.0 0.00 0.00 0.00 56 1007.5
20260508013704 16 164 4.8 9.7 0.00 0.00 0.00 55 1007.5
20260508011704 17 157 3.2 4.8 0.00 0.00 0.00 52 1007.5
20260508011204 17 202 3.2 11.3 0.00 0.00 0.00 51 1007.4
20260508010704 17 187 4.8 8.0 0.00 0.00 0.00 51 1007.5
20260508010211 18 178 4.8 19.3 0.00 0.00 0.00 50 1007.4
20260508004704 18 176 3.2 12.9 0.00 0.00 0.00 49 1007.4
20260508004205 18 162 6.4 12.9 0.00 0.00 0.00 48 1007.4
20260508003704 19 180 4.8 14.5 0.00 0.00 0.00 48 1007.4
20260508003204 19 178 4.8 16.1 0.00 0.00 0.00 47 1007.4
20260508001704 20 171 8.0 14.5 0.00 0.00 0.00 45 1007.5
20260507233704 21 180 4.8 16.1 0.00 0.00 0.00 44 1007.8
20260507233205 21 162 8.0 19.3 0.00 0.00 0.00 44 1007.9
20260507231204 21 179 8.0 19.3 0.00 0.00 0.00 44 1008.0
20260507230215 21 160 8.0 22.5 0.00 0.00 0.00 45 1008.2
20260507224705 21 161 9.7 24.1 0.00 0.00 0.00 45 1008.3
20260507224204 21 177 6.4 19.3 0.00 0.00 0.00 47 1008.3
20260507223704 21 169 9.7 19.3 0.00 0.00 0.00 45 1008.4
20260507223204 21 167 8.0 27.4 0.00 0.00 0.00 46 1008.5
20260507221704 21 196 6.4 14.5 0.00 0.00 0.00 46 1008.6
20260507221204 21 185 8.0 16.1 0.00 0.00 0.00 45 1008.6
20260507220204 21 172 8.0 22.5 0.00 0.00 0.00 46 1008.6
20260507214704 21 179 6.4 19.3 0.00 0.00 0.00 46 1008.6
20260507214204 21 184 11.3 25.7 0.00 0.00 0.00 46 1008.6
20260507213204 21 194 9.7 32.2 0.00 0.00 0.00 46 1008.8
20260507211704 21 166 9.7 25.7 0.00 0.00 0.00 46 1008.9
20260507210704 21 179 8.0 20.9 0.00 0.00 0.00 48 1009.0
20260507210204 21 178 11.3 29.0 0.00 0.00 0.00 47 1009.1
20260507204204 21 182 14.5 27.4 0.00 0.00 0.00 48 1009.5
20260507203704 21 165 8.0 29.0 0.00 0.00 0.00 47 1009.5
20260507201703 20 181 9.7 29.0 0.00 0.00 0.00 48 1009.9
20260507194204 20 187 9.7 19.3 0.00 0.00 0.00 50 1010.4
20260507193704 20 174 8.0 16.1 0.00 0.00 0.00 49 1010.5
20260507193204 20 174 9.7 22.5 0.00 0.00 0.00 48 1010.6
20260507190204 20 169 9.7 29.0 0.00 0.00 0.00 51 1010.8
20260507184703 20 176 8.0 20.9 0.00 0.00 0.00 50 1011.1
20260507183704 20 184 11.3 19.3 0.00 0.00 0.00 50 1011.2
20260507181703 19 176 11.3 24.1 0.00 0.00 0.00 52 1011.5
20260507181204 18 174 9.7 20.9 0.00 0.00 0.00 52 1011.6
20260507180714 18 163 9.7 19.3 0.00 0.00 0.00 49 1011.8
20260507180204 18 181 4.8 22.5 0.00 0.00 0.00 53 1011.8
20260507173703 17 195 8.0 22.5 0.00 0.00 0.00 53 1012.2
20260507171704 17 353 4.8 19.3 0.00 0.00 0.00 51 1012.3
20260507170704 17 174 9.7 24.1 0.00 0.00 0.00 57 1012.7
20260507170204 17 178 8.0 22.5 0.00 0.00 0.00 55 1012.8
20260507164704 17 224 8.0 19.3 0.00 0.00 0.00 53 1013.0
20260507161204 17 181 8.0 19.3 0.00 0.00 0.00 56 1013.3
20260507160203 17 168 9.7 29.0 0.00 0.00 0.00 56 1013.5
20260507154205 16 164 4.8 14.5 0.00 0.00 0.00 57 1013.7
20260507153216 16 261 4.8 22.5 0.00 0.00 0.00 56 1013.6
20260507151706 16 196 9.7 22.5 0.00 0.00 0.00 57 1013.8
20260507150705 15 180 6.4 16.1 0.00 0.00 0.00 59 1013.9
20260507144705 15 178 4.8 11.3 0.00 0.00 0.00 61 1014.1
20260507143706 14 179 8.0 19.3 0.00 0.00 0.00 62 1014.0
20260507143205 14 178 6.4 19.3 0.00 0.00 0.00 62 1014.0
20260507141705 13 176 8.0 20.9 0.00 0.00 0.00 62 1014.2
20260507140705 13 182 8.0 19.3 0.00 0.00 0.00 62 1014.1
20260507140205 13 201 4.8 14.5 0.00 0.00 0.00 61 1014.2
20260507134724 12 186 3.2 9.7 0.00 0.00 0.00 59 1014.2
20260507134205 12 157 4.8 9.7 0.00 0.00 0.00 58 1014.2
20260507133706 12 185 3.2 8.0 0.00 0.00 0.00 58 1014.2
20260507133205 11 176 4.8 12.9 0.00 0.00 0.00 56 1014.2
20260507131206 10 184 4.8 12.9 0.00 0.00 0.00 41 1014.5
20260507130705 10 165 4.8 8.0 0.00 0.00 0.00 33 1014.5
20260507124705 8 188 3.2 8.0 0.00 0.00 0.00 11 1014.6
20260507124205 8 186 4.8 9.7 0.00 0.00 0.00 6 1014.6
20260507123705 7 181 3.2 9.7 0.00 0.00 0.00 3 1014.6
20260507123205 7 165 3.2 11.3 0.00 0.00 0.00 3 1014.7
20260507121705 6 198 3.2 9.7 0.00 0.00 0.00 7 1014.7
20260507121205 6 180 3.2 9.7 0.00 0.00 0.00 9 1014.7
20260507120205 6 174 3.2 9.7 0.00 0.00 0.00 12 1014.6
20260507114712 5 178 3.2 9.7 0.00 0.00 0.00 18 1014.4
20260507114205 5 143 3.2 8.0 0.00 0.00 0.00 21 1014.4
20260507113705 5 175 3.2 9.7 0.00 0.00 0.00 24 1014.5
20260507111705 5 187 1.6 4.8 0.00 0.00 0.00 32 1014.4
20260507111204 5 171 3.2 8.0 0.00 0.00 0.00 33 1014.4
20260507104704 5 188 1.6 4.8 0.00 0.00 0.00 40 1014.4
20260507094705 5 194 1.6 4.8 0.00 0.00 0.00 52 1014.7
20260507093705 5 194 1.6 4.8 0.00 0.00 0.00 54 1014.7
20260507091705 5 194 1.6 3.2 0.00 0.00 0.00 55 1014.8
20260507091205 5 194 1.6 4.8 0.00 0.00 0.00 55 1014.8
20260507090705 6 181 1.6 4.8 0.00 0.00 0.00 56 1014.8
20260507090205 6 180 0.0 4.8 0.00 0.00 0.00 56 1014.8
20260507084704 6 188 1.6 4.8 0.00 0.00 0.00 58 1014.9
20260507084204 6 188 1.6 4.8 0.00 0.00 0.00 59 1014.9
20260507081216 6 182 0.0 3.2 0.00 0.00 0.00 62 1014.9
20260507080205 6 179 3.2 4.8 0.00 0.00 0.00 63 1015.0
20260507074705 6 185 0.0 1.6 0.00 0.00 0.00 64 1015.0
20260507071705 6 185 1.6 3.2 0.00 0.00 0.00 64 1015.2
20260507071204 6 185 1.6 4.8 0.00 0.00 0.00 64 1015.3
20260507070704 7 185 1.6 4.8 0.00 0.00 0.00 64 1015.3
20260507070205 7 185 1.6 4.8 0.00 0.00 0.00 64 1015.3
20260507064705 7 190 1.6 4.8 0.00 0.00 0.00 64 1015.5
20260507064204 7 190 1.6 4.8 0.00 0.00 0.00 64 1015.5
20260507063213 7 186 1.6 4.8 0.00 0.00 0.00 64 1015.7
20260507061708 7 180 1.6 4.8 0.00 0.00 0.00 63 1015.6
20260507054704 7 232 1.6 3.2 0.00 0.00 0.00 63 1015.6
20260507054204 7 232 1.6 3.2 0.00 0.00 0.00 63 1015.7
20260507053205 7 232 0.0 3.2 0.00 0.00 0.00 63 1015.7
20260507051704 7 232 1.6 3.2 0.00 0.00 0.00 64 1015.6
20260507050204 7 279 0.0 3.2 0.00 0.00 0.00 63 1015.6
20260507044705 7 279 0.0 0.0 0.00 0.00 0.00 63 1015.7
20260507044205 7 279 0.0 0.0 0.00 0.00 0.00 63 1015.7
20260507043704 7 279 0.0 0.0 0.00 0.00 0.00 63 1015.6
20260507043204 7 279 0.0 0.0 0.00 0.00 0.00 63 1015.6
20260507041205 7 279 0.0 0.0 0.00 0.00 0.00 63 1015.9
20260507040704 7 279 0.0 0.0 0.00 0.00 0.00 62 1015.9
20260507040204 7 279 0.0 0.0 0.00 0.00 0.00 62 1015.9
20260507034205 7 279 0.0 0.0 0.00 0.00 0.00 60 1015.9
20260507033704 7 279 0.0 0.0 0.00 0.00 0.00 59 1015.9
20260507033204 7 279 0.0 0.0 0.00 0.00 0.00 59 1016.0
20260507031704 7 279 0.0 0.0 0.00 0.00 0.00 59 1015.9
20260507031204 7 279 0.0 0.0 0.00 0.00 0.00 60 1016.0
20260507030205 7 279 0.0 0.0 0.00 0.00 0.00 58 1015.8
20260507024204 8 279 0.0 0.0 0.00 0.00 0.00 54 1015.7
20260507023704 8 279 0.0 0.0 0.00 0.00 0.00 55 1015.7
20260507023204 8 279 0.0 0.0 0.00 0.00 0.00 55 1015.6